ATLAS CENTAUR 2 1 00694U 63047A 26118.80714078 .00004158 00000+0 49704-3 0 9996 2 00694 30.3537 275.5114 0546462 162.0690 200.0023 14.12318573138710 THOR AGENA D R/B 1 00733U 64002A 26118.75867017 .00000191 00000+0 85274-4 0 9994 2 00733 99.1185 134.8199 0033912 112.2102 248.2684 14.34044286245472 SL-3 R/B 1 00877U 64053B 26118.57979956 .00000182 00000+0 59360-4 0 9992 2 00877 65.0764 184.9635 0081163 276.5836 82.6029 14.61400690274083 SL-8 R/B 1 02802U 67045B 26118.81517340 .00000330 00000+0 98904-4 0 9990 2 02802 74.0107 254.4680 0065144 250.1060 109.3071 14.45657066 96264 SL-8 R/B 1 03230U 68040B 26118.68354117 .00002968 00000+0 21897-3 0 9993 2 03230 74.0317 211.5090 0024188 15.0947 345.0958 15.03576200 97525 OAO 2 1 03597U 68110A 26118.72959476 .00000253 00000+0 73103-4 0 9994 2 03597 34.9948 345.8293 0006228 242.0675 117.9386 14.47333074 26358 ISIS 1 1 03669U 69009A 26118.36650149 .00000132 00000+0 90724-4 0 9991 2 03669 88.4441 149.8752 1706899 348.9203 7.8275 11.30424836354148 SERT 2 1 04327U 70009A 26118.84547405 .00000006 00000+0 64723-4 0 9998 2 04327 99.2819 59.2127 0005573 44.2267 19.5737 13.58735924786704 SL-3 R/B 1 05118U 71028B 26118.90054205 .00043305 00000+0 42932-3 0 9993 2 05118 81.2361 349.8151 0016288 101.2257 259.0831 15.65438046996512 ASTEX 1 1 05560U 71089A 26118.68926745 .00000359 00000+0 91345-4 0 9998 2 05560 92.7042 167.9066 0013198 276.4104 83.5599 14.50814497869558 SL-8 R/B 1 05730U 71119B 26118.59700468 .00012254 00000+0 63428-3 0 9990 2 05730 73.8848 82.3635 0545209 38.4608 325.4112 14.38729320662669 OAO 3 (COPERNICUS) 1 06153U 72065A 26118.79269426 .00000350 00000+0 76143-4 0 9990 2 06153 35.0071 11.8467 0007090 215.4494 196.2455 14.60033457853523 ATLAS CENTAUR R/B 1 06155U 72065B 26118.82543154 .00001371 00000+0 18947-3 0 9990 2 06155 35.0029 11.9041 0032741 71.8949 288.5314 14.77818195848685 SL-8 R/B 1 08459U 75112B 26118.86349161 .00000164 00000+0 62424-4 0 9990 2 08459 74.0597 286.6123 0015551 1.6271 358.4931 14.38226605639088 SL-3 R/B 1 10114U 77057B 26118.80990222 .00011902 00000+0 23883-3 0 9992 2 10114 97.5817 293.0074 0008432 102.4200 257.7993 15.46813593676070 SEASAT 1 1 10967U 78064A 26118.85274689 .00000341 00000+0 13349-3 0 9995 2 10967 108.0089 230.7486 0002767 258.8345 101.2489 14.46202454513767 SL-14 R/B 1 11267U 79011B 26118.81473206 .00000542 00000+0 50987-4 0 9997 2 11267 82.5258 49.0002 0014480 248.2197 111.7482 14.91969889536253 SL-8 R/B 1 11574U 79089B 26118.82247448 .00000220 00000+0 74452-4 0 9997 2 11574 74.0708 358.2429 0015533 161.1633 199.0101 14.42380584443334 SL-14 R/B 1 11672U 80005B 26118.86078365 .00000585 00000+0 56524-4 0 9994 2 11672 82.5129 259.6277 0015644 1.8182 358.3091 14.90985176483963 SL-8 R/B 1 12139U 81003B 26118.76622319 .00014028 00000+0 34945-3 0 9994 2 12139 82.9366 243.6389 0255217 4.6529 355.6983 15.12919253322245 SL-3 R/B 1 12465U 81046B 26118.79591642 .00011459 00000+0 25609-3 0 9992 2 12465 81.2316 229.5147 0018593 202.4007 157.6427 15.43184876446151 SL-3 R/B 1 12904U 81103B 26118.81433469 .00003725 00000+0 16221-3 0 9996 2 12904 81.1578 154.6185 0014337 116.3116 243.9590 15.21878174980851 SL-3 R/B 1 13068U 82013B 26118.80346889 .00004369 00000+0 18666-3 0 9997 2 13068 81.1712 102.0036 0022360 14.5934 345.5938 15.22425497411971 SL-3 R/B 1 13154U 82039B 26118.81275993 .00001860 00000+0 11102-3 0 9990 2 13154 81.1471 158.1396 0028696 153.6500 206.6193 15.10312122389209 SL-3 R/B 1 13403U 82079B 26118.72696228 .00005320 00000+0 20832-3 0 9994 2 13403 81.1437 133.9705 0023961 0.2274 359.8966 15.25344513385321 SL-14 R/B 1 13553U 82092B 26118.46002581 .00000507 00000+0 54066-4 0 9998 2 13553 82.5655 94.8285 0021490 132.9739 344.6446 14.86707879336321 SL-3 R/B 1 13819U 83010B 26118.75482594 .00013719 00000+0 26228-3 0 9999 2 13819 81.1007 300.7843 0015295 230.4411 129.5484 15.47823427365687 SL-3 R/B 1 14208U 83075B 26118.81685208 .00011203 00000+0 28479-3 0 9993 2 14208 97.6121 125.3378 0022573 54.0458 306.2877 15.39536022337863 COSMOS 1536 1 14699U 84013A 26118.87771348 .00006635 00000+0 26768-3 0 9999 2 14699 82.5455 57.9260 0016232 103.9029 256.4015 15.24494864280265 SL-14 R/B 1 14820U 84027B 26118.72404905 .00000430 00000+0 46226-4 0 9995 2 14820 82.5442 198.0966 0018442 163.1950 196.9882 14.86024858255062 SL-8 R/B 1 15483U 85006B 26118.62604409 .00000232 00000+0 85567-4 0 9990 2 15483 74.0449 169.2642 0017208 70.0420 45.6148 14.37813097161203 SL-12 R/B(2) 1 15772U 85042D 26118.78220737 .00000032 00000+0 35635-4 0 9995 2 15772 71.1093 341.8992 0033581 45.3032 26.6222 14.21995890121516 SL-14 R/B 1 15945U 85069B 26118.69347977 .00000450 00000+0 47961-4 0 9991 2 15945 82.5272 337.9229 0019568 30.8661 329.3701 14.86479526180264 SL-16 R/B 1 16182U 85097B 26118.83863483 -.00000180 00000+0 -66271-4 0 9994 2 16182 71.0046 34.9723 0007918 196.9329 222.1338 14.16605411 94339 SL-14 R/B 1 16496U 86006B 26118.72476231 .00000750 00000+0 76432-4 0 9993 2 16496 82.5292 212.6503 0077918 106.5876 254.3917 14.86895501156640 COSMOS 1743 1 16719U 86034A 26118.77973250 .00044580 00000+0 49080-3 0 9997 2 16719 82.5326 21.0903 0007419 97.5258 262.6843 15.62914626188060 SL-14 R/B 1 16792U 86046B 26118.85128391 .00000487 00000+0 53073-4 0 9994 2 16792 82.4848 32.7876 0024538 63.8911 296.4826 14.85637158133859 SL-14 R/B 1 16882U 86055B 26118.84559742 .00000486 00000+0 53091-4 0 9990 2 16882 82.5191 79.5143 0019307 161.6134 262.2501 14.85685363126819 AJISAI (EGS) 1 16908U 86061A 26118.83265155 -.00000088 00000+0 69787-4 0 9995 2 16908 50.0096 299.1606 0011433 55.5230 39.0543 12.44516034474246 SL-14 R/B 1 17567U 87024B 26118.86646231 .00000474 00000+0 51022-4 0 9999 2 17567 82.5302 45.6000 0019831 94.1465 266.2019 14.86177955 95580 COSMOS 1833 1 17589U 87027A 26118.62576594 -.00000189 00000+0 -75198-4 0 9999 2 17589 70.9162 221.0512 0022388 136.9564 223.3314 14.13032996 17371 SL-16 R/B 1 17590U 87027B 26118.66601266 .00000118 00000+0 82508-4 0 9993 2 17590 71.0022 171.1827 0003792 19.9484 340.1787 14.17172337 22425 SL-14 R/B 1 17912U 87038B 26118.81975119 .00000447 00000+0 48988-4 0 9990 2 17912 82.5008 249.5692 0019224 3.5703 356.5646 14.85412794 86675 COSMOS 1844 1 17973U 87041A 26118.81946925 -.00000290 00000+0 -12507-3 0 9999 2 17973 70.8980 288.4383 0032821 304.6625 55.1404 14.14559063 10670 SL-14 R/B 1 18153U 87055B 26118.65317109 .00000502 00000+0 54958-4 0 9994 2 18153 82.4966 301.9324 0019960 204.5949 155.4317 14.85671589 77357 COSMOS 1867 1 18187U 87060A 26118.39214647 -.00000028 00000+0 27059-4 0 9997 2 18187 65.0095 167.5121 0015462 281.0790 78.8556 14.31510077 27052 SL-14 R/B 1 18749U 88001B 26118.78663956 .00000399 00000+0 43175-4 0 9998 2 18749 82.5120 148.2510 0019587 74.3485 285.9891 14.85572563 49462 COSMOS 1933 1 18958U 88020A 26118.68296117 .00003511 00000+0 16918-3 0 9994 2 18958 82.5158 201.4417 0004714 44.8859 315.2756 15.18414043 57816 SL-3 R/B 1 19046U 88032B 26118.89019096 .00005500 00000+0 25299-3 0 9990 2 19046 97.5233 102.0044 0027377 61.1731 299.2248 15.20420641 59732 SL-16 R/B 1 19120U 88039B 26118.86774560 .00000061 00000+0 51724-4 0 9991 2 19120 71.0150 322.4473 0024056 263.5515 96.2870 14.19624488965502 COSMOS 1953 1 19210U 88050A 26118.69339903 .00007624 00000+0 26720-3 0 9992 2 19210 82.5045 107.9125 0009135 314.8438 45.2059 15.29258593 45422 SL-8 R/B 1 19257U 88053B 26118.78248976 .00000205 00000+0 74907-4 0 9994 2 19257 74.0498 20.1285 0020483 191.1589 225.4823 14.38943258983808 COSMOS 1975 1 19573U 88093A 26118.87476503 .00007381 00000+0 26300-3 0 9993 2 19573 82.5189 67.2701 0011340 4.8139 355.3207 15.28691096 27075 SL-14 R/B 1 19574U 88093B 26118.70397278 .00000397 00000+0 42809-4 0 9990 2 19574 82.5329 355.1058 0019423 230.0257 191.8696 14.85705460 8448 SL-16 R/B 1 19650U 88102B 26118.13732242 .00000066 00000+0 57354-4 0 9991 2 19650 71.0007 47.4503 0016256 291.8242 68.1152 14.16157523933899 INTERCOSMOS 24 1 20261U 89080A 26118.84747507 .00000482 00000+0 13664-3 0 9992 2 20261 82.6046 71.7392 1187581 176.3470 184.7357 12.59603699673110 SL-14 R/B 1 20262U 89080C 26118.56377402 .00000392 00000+0 10858-3 0 9997 2 20262 82.5903 141.1793 1230968 70.8146 302.1879 12.50530965666387 DELTA 1 R/B 1 20323U 89089B 26118.48939914 .00000286 00000+0 79486-4 0 9992 2 20323 97.0664 317.9921 0068117 326.3015 33.3861 14.50698767902951 ARIANE 40 R/B 1 20443U 90005H 26118.77705308 .00000258 00000+0 95309-4 0 9996 2 20443 98.2993 177.9214 0011110 58.9297 301.2981 14.39900769900012 DELTA 2 R/B(1) 1 20453U 90008B 26118.63495227 .00064237 00000+0 60822-3 0 9999 2 20453 35.6018 205.4372 0073178 7.3498 352.8298 15.62330203933938 COSMOS 2058 1 20465U 90010A 26118.69484058 .00003050 00000+0 17721-3 0 9997 2 20465 82.4691 358.1590 0010150 150.6714 209.5088 15.11715644949796 SL-14 R/B 1 20466U 90010B 26118.79901211 .00000447 00000+0 51056-4 0 9991 2 20466 82.5042 220.3192 0020970 132.0822 228.2181 14.83614724935917 SL-14 R/B 1 20511U 90018B 26118.59481344 .00000349 00000+0 40804-4 0 9998 2 20511 82.5227 176.4601 0014758 289.2749 70.6868 14.82186325929979 HST 1 20580U 90037B 26118.52021253 .00006794 00000+0 21830-3 0 9994 2 20580 28.4750 59.8747 0001707 318.3869 41.6597 15.30186885780952 SL-16 R/B 1 20625U 90046B 26118.60553588 .00000227 00000+0 14183-3 0 9992 2 20625 70.9989 193.0789 0015958 233.2583 126.7075 14.15016424855453 COSMOS 2084 1 20663U 90055A 26118.86008653 .00002084 00000+0 15629-3 0 9999 2 20663 62.7891 164.4243 0009215 212.5479 147.5054 15.05916104943872 SL-6 R/B(2) 1 20666U 90055D 26118.64627985 .00002707 00000+0 20833-3 0 9998 2 20666 62.7822 83.9324 0032875 357.4127 2.6797 15.03812690945703 SL-8 R/B 1 20775U 90078B 26118.68116279 .00022733 00000+0 66299-3 0 9994 2 20775 82.9060 206.3061 0355995 205.1089 153.2457 14.90510254816741 SL-8 R/B 1 21088U 91006B 26118.76619821 .00000202 00000+0 18814-3 0 9991 2 21088 82.9397 132.8037 0020986 253.8849 280.0646 13.77505420770966 OKEAN-3 1 21397U 91039A 26118.74543825 .00004055 00000+0 28275-3 0 9990 2 21397 82.5134 288.3224 0014535 154.9887 205.2047 15.05074964872565 COSMOS 2151 1 21422U 91042A 26118.84093905 .00001908 00000+0 15006-3 0 9995 2 21422 82.4989 35.2928 0010690 247.8569 112.1521 15.00304236870719 SL-14 R/B 1 21423U 91042B 26118.86109022 .00000345 00000+0 40518-4 0 9997 2 21423 82.4940 173.1511 0018554 77.7545 282.5746 14.81872054860501 ERS-1 1 21574U 91050A 26118.81404278 .00000321 00000+0 11700-3 0 9993 2 21574 98.7831 138.2999 0032889 55.0021 305.4246 14.39485296822941 ARIANE 40 R/B 1 21610U 91050F 26118.74586568 .00000291 00000+0 99609-4 0 9990 2 21610 98.1917 169.0788 0001770 287.6334 72.4663 14.42926959826212 INTERCOSMOS 25 1 21819U 91086A 26118.84115850 .00000857 00000+0 16501-3 0 9990 2 21819 82.5994 279.6732 1485667 8.8420 353.5963 12.12133935502769 SL-8 R/B 1 21876U 92008B 26118.83421957 .00000046 00000+0 32095-4 0 9992 2 21876 82.9281 230.4769 0034382 356.9224 115.6505 13.75970950716315 SL-8 R/B 1 21938U 92020B 26118.75935500 -.00000037 00000+0 -54485-4 0 9999 2 21938 82.9269 116.5731 0029581 155.4306 17.3406 13.75548172708014 USA 81 1 21949U 92023A 26118.67665209 .00000195 00000+0 64892-4 0 9997 2 21949 85.0038 102.5836 0001419 106.7071 253.4278 14.32383447101948 COSMOS 2219 1 22219U 92076A 26118.81577853 .00000343 00000+0 20474-3 0 9991 2 22219 71.0600 273.2796 0016632 127.4339 232.8300 14.14098339725469 SL-16 R/B 1 22220U 92076B 26118.63238249 -.00000051 00000+0 -15983-5 0 9995 2 22220 70.9987 83.1689 0012237 8.7605 164.2429 14.16865107728909 COSMOS 2221 1 22236U 92080A 26118.79210654 .00001981 00000+0 17228-3 0 9997 2 22236 82.5048 231.0780 0014762 29.9627 330.2436 14.96400690788283 SL-16 R/B 1 22285U 92093B 26118.84446237 .00000259 00000+0 15711-3 0 9991 2 22285 71.0216 258.9739 0006100 243.3132 116.7366 14.15459656720258 COSMOS 2228 1 22286U 92094A 26118.77470965 .00001840 00000+0 15536-3 0 9992 2 22286 82.5199 189.3626 0019186 130.7118 229.5775 14.97421601783557 SL-16 R/B 1 22566U 93016B 26118.67791084 -.00000247 00000+0 -10208-3 0 9998 2 22566 71.0037 110.1929 0012451 250.9207 109.0568 14.15308323709243 COSMOS 2242 1 22626U 93024A 26118.77892122 .00002027 00000+0 17455-3 0 9997 2 22626 82.5208 218.8008 0017420 133.8656 226.4009 14.96756307787887 SL-16 R/B 1 22803U 93059B 26118.80118108 .00000259 00000+0 15160-3 0 9997 2 22803 70.9898 265.4483 0015705 139.6052 220.6241 14.17240038686630 ARIANE 40 R/B 1 22830U 93061H 26118.76663602 .00000196 00000+0 87364-4 0 9995 2 22830 98.4841 186.6448 0011710 132.4009 227.8168 14.32885844701275 COSMOS 2278 1 23087U 94023A 26118.59927931 .00000097 00000+0 75289-4 0 9991 2 23087 71.0542 70.6741 0010692 304.1700 55.8409 14.14388548651862 SL-16 R/B 1 23088U 94023B 26118.83532878 .00000128 00000+0 90669-4 0 9995 2 23088 70.9996 325.5777 0005014 238.4864 121.5769 14.15015664653181 SL-16 R/B 1 23343U 94074B 26118.65086609 .00000464 00000+0 68750-4 0 9990 2 23343 97.7033 147.4275 0007919 64.9001 53.0648 14.79459130694639 SL-16 R/B 1 23405U 94077B 26118.79737345 -.00000073 00000+0 -13070-4 0 9990 2 23405 70.9833 247.0677 0000276 72.6439 287.4714 14.15572821623320 ARIANE 40+ R/B 1 23561U 95021B 26118.79319146 .00000274 00000+0 10129-3 0 9990 2 23561 98.4427 189.5772 0006511 2.8218 108.2815 14.39805273626456 SL-16 R/B 1 23705U 95058B 26118.87745552 -.00000241 00000+0 -98974-4 0 9994 2 23705 71.0209 74.8845 0011082 33.6441 326.5383 14.15504139574950 SL-16 R/B 1 24298U 96051B 26118.59895670 .00000091 00000+0 76018-4 0 9998 2 24298 70.7610 69.5987 0012507 61.1127 299.1246 14.12428675528698 ORBVIEW 2 (SEASTAR) 1 24883U 97037A 26118.74216258 .00000267 00000+0 10902-3 0 9993 2 24883 98.8645 284.4018 0001100 271.5567 88.5491 14.35527046515653 SL-16 R/B 1 25400U 98043G 26118.82804207 .00000039 00000+0 35167-4 0 9991 2 25400 98.8331 72.5731 0009017 225.0708 134.9740 14.26060389446136 SL-16 R/B 1 25407U 98045B 26118.86374455 -.00000074 00000+0 -13047-4 0 9995 2 25407 71.0103 76.0567 0009315 299.6940 60.3256 14.16196418434206 ISS (ZARYA) 1 25544U 98067A 26118.65158674 .00007212 00000+0 13886-3 0 9990 2 25544 51.6320 185.2859 0007088 1.2030 358.8974 15.49006627564072 CZ-4B R/B 1 25732U 99025C 26118.76469203 .00000057 00000+0 48192-4 0 9998 2 25732 98.6530 161.8362 0036770 199.1936 273.1936 14.18274631395263 OKEAN-O 1 25860U 99039A 26118.73736189 .00000679 00000+0 95766-4 0 9991 2 25860 97.9352 178.0951 0001583 113.1370 247.0009 14.80406922441795 SL-16 R/B 1 25861U 99039B 26118.73783414 .00000590 00000+0 81386-4 0 9990 2 25861 97.9875 177.7339 0016180 94.9503 265.3557 14.81793887444272 DELTA 2 R/B 1 25876U 99041E 26118.34688104 .00000673 00000+0 14752-3 0 9990 2 25876 51.7600 102.8993 0502422 134.8627 229.4273 14.11933837370040 HELIOS 1B 1 25977U 99064A 26118.75127247 .00001717 00000+0 19406-3 0 9999 2 25977 98.1650 22.4566 0000372 106.5827 253.5429 14.87871205692704 TERRA 1 25994U 99068A 26118.84606169 .00000409 00000+0 92318-4 0 9998 2 25994 97.9498 170.3390 0003053 50.5663 8.3948 14.61062754402404 SL-16 R/B 1 26070U 00006B 26118.89222457 .00000283 00000+0 16780-3 0 9995 2 26070 71.0042 352.2785 0014518 107.5893 252.6817 14.15832491355669 TITAN 4B R/B 1 26474U 00047B 26118.78049772 .00003098 00000+0 19492-3 0 9993 2 26474 67.9882 259.6097 0042733 338.4240 21.5106 15.09932031400479 ENVISAT 1 27386U 02009A 26118.87484426 .00000101 00000+0 46536-4 0 9997 2 27386 98.3802 71.3033 0001145 87.6466 292.4832 14.39052715266396 IDEFIX & ARIANE 42P R/B 1 27422U 02021B 26118.83760352 .00000253 00000+0 11265-3 0 9991 2 27422 98.5923 56.8627 0012699 43.8630 316.3559 14.31057346251194 AQUA 1 27424U 02022A 26118.84120314 .00000923 00000+0 19365-3 0 9996 2 27424 98.4247 87.1514 0002067 92.7520 282.8517 14.62079379276063 CZ-4B R/B 1 27432U 02024C 26118.89102763 .00000033 00000+0 40058-4 0 9996 2 27432 98.8740 172.0203 0049224 239.7485 294.3520 14.14556105236334 MIDORI II (ADEOS-II) 1 27597U 02056A 26118.85643955 .00000299 00000+0 13547-3 0 9998 2 27597 98.7844 77.7083 0000945 141.6035 218.5213 14.29320578217465 H-2A R/B 1 27601U 02056E 26118.88284065 .00000348 00000+0 13642-3 0 9991 2 27601 98.3279 77.3648 0070558 13.1231 44.5421 14.33795595221306 CZ-4B R/B 1 28059U 03049C 26118.85837132 .00000432 00000+0 11029-3 0 9999 2 28059 98.6898 115.7451 0049320 78.8967 281.7769 14.55062725193898 CZ-2C R/B 1 28222U 04012C 26118.71766086 .00074314 00000+0 59288-3 0 9995 2 28222 97.7128 188.9668 0013371 126.2714 233.9785 15.70803884212114 SL-16 R/B 1 28353U 04021B 26118.73355618 -.00000206 00000+0 -82187-4 0 9993 2 28353 70.9981 127.4743 0006908 306.3252 53.7232 14.14603435129914 CZ-4B R/B 1 28415U 04035C 26118.82728880 .00007525 00000+0 25870-3 0 9996 2 28415 97.3417 152.4751 0032621 148.0354 212.2874 15.29863305187573 CZ-2C R/B 1 28480U 04046B 26118.68951257 .00000199 00000+0 89185-4 0 9990 2 28480 98.1970 30.5565 0139641 7.5442 352.7797 14.27011731115631 ARIANE 5 R/B 1 28499U 04049H 26118.48400964 .00001168 00000+0 13461-3 0 9995 2 28499 98.2690 288.8285 0083849 188.8452 171.1289 14.85360490153184 CZ-2D R/B 1 28738U 05024B 26118.59963775 .00044953 00000+0 46424-3 0 9995 2 28738 97.3534 135.7394 0005156 162.9457 197.1976 15.64641643147578 ALOS (DAICHI) 1 28931U 06002A 26118.87723542 .00001221 00000+0 21215-3 0 9996 2 28931 98.1290 74.6130 0002000 101.3979 258.7451 14.69946369 80857 H-2A R/B 1 28932U 06002B 26118.67452497 .00008251 00000+0 40184-3 0 9999 2 28932 98.2499 270.0681 0052380 72.1933 288.5003 15.17436067102014 RESURS-DK 1 1 29228U 06021A 26118.38815535 .00002856 00000+0 16745-3 0 9994 2 29228 69.9312 108.4401 0003531 336.6454 23.4551 15.13000837 95042 CZ-4B R/B 1 29507U 06046C 26118.73492993 .00005303 00000+0 26490-3 0 9997 2 29507 97.5504 163.4985 0034586 94.2117 266.3070 15.17379716 67634 CZ-2C R/B 1 31114U 07010B 26118.81598686 .00000113 00000+0 70794-4 0 9992 2 31114 98.4038 229.5962 0059717 147.5996 212.8870 14.20263324986838 COSMO-SKYMED 1 1 31598U 07023A 26118.80522432 .00003588 00000+0 31813-3 0 9994 2 31598 97.8866 310.2506 0001633 99.3144 260.8262 14.96858430 22404 COSMOS 2428 1 31792U 07029A 26118.65756771 -.00000183 00000+0 -72653-4 0 9992 2 31792 70.9393 98.4611 0008940 221.1577 138.8871 14.12944613971154 SL-16 R/B 1 31793U 07029B 26118.82218037 .00000348 00000+0 20483-3 0 9994 2 31793 70.9756 66.9988 0002499 267.8609 105.2035 14.14846858972460 KORONAS-FOTON 1 33504U 09003A 26118.79657675 .00013609 00000+0 29073-3 0 9999 2 33504 82.4315 223.7323 0009539 339.8519 20.2351 15.44658368953477 CZ-2C R/B 1 37731U 11030B 26118.86738955 .00001066 00000+0 14019-3 0 9995 2 37731 97.8619 75.1603 0052166 185.4607 229.0947 14.81362181797524 H-2A R/B 1 38341U 12025E 26118.84841149 .00002590 00000+0 23571-3 0 9992 2 38341 98.4788 89.9496 0044919 147.2725 213.1291 14.95453241755717 SHIJIAN-16 (SJ-16) 1 39358U 13057A 26118.90538950 .00001596 00000+0 15800-3 0 9998 2 39358 74.9706 90.0105 0016333 344.7914 15.2780 14.92484328678993 SL-4 R/B 1 39679U 14021B 26118.33500626 .00014576 00000+0 30964-3 0 9992 2 39679 51.6055 94.7742 0092632 284.6433 74.4296 15.40758497663921 ALOS-2 1 39766U 14029A 26118.83482557 .00001801 00000+0 24801-3 0 9994 2 39766 97.9203 216.7045 0001690 86.9580 273.1825 14.79473653644281 YAOGAN-29 1 41038U 15069A 26118.85792784 .00000566 00000+0 76215-4 0 9996 2 41038 98.0075 147.4055 0001931 133.7755 226.3618 14.83044945563316 ASTRO-H (HITOMI) 1 41337U 16012A 26118.80088456 .00003467 00000+0 20072-3 0 9998 2 41337 31.0002 33.0865 0009370 116.5433 243.6166 15.10293883559819 HXMT (HUIYAN) 1 42758U 17034A 26118.85848601 .00004444 00000+0 22332-3 0 9999 2 42758 43.0129 97.6178 0031857 194.6947 165.2978 15.18017190490160 SAOCOM 1A 1 43641U 18076A 26118.85334965 .00000186 00000+0 29916-4 0 9996 2 43641 97.8901 306.3168 0001531 87.7195 272.4193 14.82155594408798 H-2A R/B 1 43682U 18084L 26118.68632022 .00018704 00000+0 41769-3 0 9990 2 43682 98.8658 346.8265 0023532 206.5490 153.4550 15.43323763413484 SAOCOM 1B 1 46265U 20059A 26118.81707708 .00001189 00000+0 15607-3 0 9995 2 46265 97.8893 305.3746 0001508 87.8326 272.3060 14.82124523306174 CSS (TIANHE) 1 48274U 21035A 26118.71774772 .00025661 00000+0 27592-3 0 9993 2 48274 41.4670 263.2015 0006751 291.8238 68.1883 15.63121251285433 COSMOS 2550 1 48865U 21056A 26118.85757205 -.00000109 00000+0 25227-5 0 9995 2 48865 67.1429 249.1245 0008399 269.8654 90.1538 15.33829624271153 CZ-2C R/B 1 52794U 22058K 26118.85616970 .00041831 00000+0 53186-3 0 9996 2 52794 50.1872 59.4874 0038271 55.9219 304.5376 15.58022347217949 CZ-2C R/B 1 54039U 22132E 26118.46258485 .00046894 00000+0 44907-3 0 9998 2 54039 97.2927 123.4687 0012935 259.3030 100.6774 15.66442361198159 GSLV R/B 1 54149U 22138AN 26118.58997767 .00002102 00000+0 17944-3 0 9997 2 54149 87.3810 149.6410 0020038 336.9576 23.0754 14.97039201191399 XRISM 1 57800U 23137A 26118.81935321 .00005507 00000+0 30688-3 0 9990 2 57800 31.0022 319.2804 0007605 186.1167 173.9380 15.12036158145389 ACS3 1 59588U 24077B 26118.42628241 .00000948 00000+0 75623-3 0 9998 2 59588 97.1803 48.3648 0058343 343.7079 16.2209 13.91927163101110 HTV-X1 1 66174U 25241A 26118.55936247 .00013912 00000+0 15523-3 0 9991 2 66174 51.6354 191.3330 0007133 1.9599 358.1422 15.63079555 28581 SZ-21 MODULE 1 66515U 25246C 26118.67245088 .00040544 00000+0 29634-3 0 9993 2 66515 41.4734 254.7617 0003706 344.0084 16.0641 15.72433742 25934